Regional Weather Roundup
Issued by NWS

Home | Current Version | Previous Version | Text Only | Print | Product List | Glossary On
Versions: 1 2 3 4 5 6 7 8 9 10 11 12 13 14 15 16 17 18 19 20 21 22 23 24 25 26 27 28 29 30 31 32 33 34 35 36 37 38 39 40 41 42 43 44 45 46 47 48 49 50
000
ASUS45 KBOU 290607
RWRCO

WEATHER ROUNDUP FOR COLORADO
NATIONAL WEATHER SERVICE DENVER/BOULDER CO
1100 PM MST SUN DEC 28 2014

NOTE: "FAIR" INDICATES FEW OR NO CLOUDS BELOW 12000 FEET WITH NO
SIGNIFICANT WEATHER AND/OR OBSTRUCTIONS TO VISIBILITY.

COZ001>005-013-030-031-290700-
...NORTHWEST COLORADO...

CITY           SKY/WX    TMP DP  RH WIND       PRES   REMARKS
CRAIG          LGT SNOW  19  15  84 CALM      29.99R FOG
HAYDEN         CLOUDY    19  16  86 W3        29.97R
MEEKER         LGT SNOW  20  17  88 N3        29.98S FOG
MOUNT WERNER   NOT AVBL
STEAMBOAT SPGS CLOUDY    17  15  92 CALM      29.95S
WALDEN         PTCLDY     7   3  85 N6        29.90R WCI  -3
$$

COZ006>008-011-290700-
...WEST CENTRAL VALLEYS...

CITY           SKY/WX    TMP DP  RH WIND       PRES   REMARKS
GRAND JUNCTION LGT SNOW  24  17  74 SE3       30.04R
MONTROSE       PTCLDY    14  10  84 SW3       30.00F
EAGLE          LGT SNOW  19  16  86 CALM      29.99S FOG
RIFLE          LGT SNOW  20  17  88 CALM      30.02F FOG
DELTA          MOCLDY    23  13  67 W3        30.02R
NUCLA          MOCLDY    25  14  63 CALM      30.04S
$$

COZ017>023-064>068-290700-
...SOUTHWEST COLORADO...

CITY           SKY/WX    TMP DP  RH WIND       PRES   REMARKS
DURANGO        CLEAR     11   6  81 CALM      30.04F
CORTEZ         CLEAR      8   4  83 NE5       30.05F WCI   0
PAGOSA SPRINGS CLEAR    N/A N/A N/A CALM      30.03S
TELLURIDE      NOT AVBL
WOLF CREEK PAS MOCLDY     3   1  92 MISG      29.89F FOG
$$

COZ009-010-012-014-032>034-037-058>063-290700-
...CENTRAL COLORADO...

CITY           SKY/WX    TMP DP  RH WIND       PRES   REMARKS
ASPEN          LGT SNOW  14  10  84 N5        29.91S FOG     WCI   6
BUENA VISTA    CLOUDY    12   5  73 E7        29.89F WCI   2
COPPER MTN     LGT SNOW   9   1  72 W9G18     29.78S VSB 1   WCI  -5
BERTHOUD PASS  NOT AVBL
COTTONWOOD PAS CLOUDY    19   9  63 CALM      29.85F
GUNNISON       MOCLDY    -2 -26  32 S5        29.99F WCI -12
KREMMLING      CLOUDY    16   9  73 CALM      29.94S
LEADVILLE      LGT SNOW  11   7  84 VRB3      29.83S FOG
MONARCH PASS   CLOUDY     5   1  85 MISG      29.91F
SALIDA         PTCLDY    25   7  47 SW10G16   29.98F WCI  14
SUNLIGHT       SNOW     N/A N/A N/A CALM      29.86S VSB 1/2
WILKERSON PASS MOCLDY     5   3  92 SW7       29.84S WCI  -7
$$

COZ069>075-290700-
...SAN LUIS VALLEY/SANGRE DE CRISTO MOUNTAINS...

CITY           SKY/WX    TMP DP  RH WIND       PRES   REMARKS
ALAMOSA        MOCLDY    -4  -9  79 CALM      30.00S
LA VETA PASS   NOT AVBL
SAGUACHE       PTCLDY     3   0  85 CALM      29.98S
$$

COZ035-036-038>040-290700-
...NORTHERN COLORADO FRONT RANGE...

CITY           SKY/WX    TMP DP  RH WIND       PRES   REMARKS
DENVER INTL AP PTCLDY    17  10  74 SW9       29.93S WCI   6
DMNS CITY PARK   N/A     20  14  77 S7        29.94S WCI  11
AURORA         MOCLDY    17  10  74 S8        29.94S WCI   6
FRONT RANGE AP PTCLDY    19  14  79 SW7       29.94S WCI  10
ERIE MUNI ARPT   N/A      3  -1  86 MISG      29.95R
BOULDER MUN AP PTCLDY    19  12  73 SW6       29.93S WCI  11
CENTENNIAL     MOCLDY    11   6  81 SE5       29.93R WCI   3
BROOMFIELD     PTCLDY    21  10  63 W7        29.93S WCI  13
FORT COLLINS   PTCLDY    12   9  85 N8        29.96R WCI   1
LONGMONT       PTCLDY     7   2  80 S6        29.96S WCI  -3
$$

COZ041-046-047-076>085-087-088-290700-
...PIKES PEAK/PALMER DIVIDE AND SOUTHERN FOOTHILLS...

CITY           SKY/WX    TMP DP  RH WIND       PRES   REMARKS
COLO. SPRINGS  PTCLDY    18   6  59 N5        29.92S WCI  11
A. F. ACADEMY  PTCLDY    19   6  56 NE8       29.91R WCI   9
ELLICOTT       NOT AVBL
FALCON         PTCLDY    19   5  54 CALM      29.92R
FORT CARSON    CLEAR     26  11  52 W1        29.92R
LIMON          CLEAR      7   3  84 N5        29.95R WCI  -2
MONUMENT HILL  CLEAR     12   5  73 S3        29.89S
TRINIDAD       CLEAR     16   7  67 W13       29.95R WCI   2
$$

COZ042>045-048>051-090-091-290700-
...NORTHEAST COLORADO...

CITY           SKY/WX    TMP DP  RH WIND       PRES   REMARKS
GREELEY ARPT   MOCLDY     3  -8  60 CALM      29.96R
AKRON          MOCLDY    14  10  84 W8        29.97R WCI   3
BURLINGTON     CLEAR     12   9  87 W5        29.99R WCI   4
WRAY           CLEAR     11   8  90 W7        30.01S WCI   0
STERLING       MOCLDY    10   7  85 S6        30.00R WCI   1
HOLYOKE        CLEAR      7   1  78 CALM      30.01S
FORT MORGAN    MOCLDY    10   7  88 N8        29.98S WCI  -2
$$

COZ086-089-092>099-290700-
...SOUTHEAST COLORADO...

CITY           SKY/WX    TMP DP  RH WIND       PRES   REMARKS
PUEBLO         CLEAR     22  11  62 E7        29.95R WCI  13
LA JUNTA       CLEAR     19  14  81 W8        29.97R WCI   9
LAMAR          CLEAR     11   9  92 W5        29.98R WCI   3
SPRINGFIELD      N/A     23  14  68 W8        29.93S WCI  14
$$


USA.gov is the U.S. government's official web portal to all federal, state and local government web resources and services.